Regional Weather Roundup
Issued by NWS

Home | Current Version | Previous Version | Text Only | Print | Product List | Glossary On
Versions: 1 2 3 4 5 6 7 8 9 10 11 12 13 14 15 16 17 18 19 20 21 22 23 24 25 26 27 28 29 30 31 32 33 34 35 36 37 38 39 40 41 42 43 44 45 46 47 48 49 50
496
ASUS43 KMPX 211001
RWRMN
WEATHER ROUNDUP FOR MINNESOTA
NATIONAL WEATHER SERVICE TWIN CITIES/CHANHASSEN MN
500 AM CDT SAT OCT 21 2017


NOTE: "FAIR" INDICATES FEW OR NO CLOUDS BELOW 12,000 FEET WITH NO
SIGNIFICANT WEATHER AND/OR OBSTRUCTIONS TO VISIBILITY. N/A MEANS
CURRENT SKY AND/OR WEATHER CONDITIONS ARE NOT AVAILABLE.

MNZ060>063-068>070-211100-
   Twin Cities Metro

CITY           SKY/WX    TMP DP  RH WIND       PRES   REMARKS
TWIN CITIES    CLOUDY    63  53  70 S10       29.69F
ST PAUL        CLOUDY    63  53  70 SE16G24   29.70F
CRYSTAL        CLOUDY    62  50  64 SE10      29.66F
BLAINE         CLOUDY    64  54  68 SE13      29.68S
LAKEVILLE      CLOUDY    61  52  72 S10G17    29.69S
EDEN PRAIRIE   CLOUDY    62  53  72 S9        29.67S
SOUTH ST PAUL  MOCLDY    63  51  64 SE13      29.70S
LAKE ELMO      FAIR      63  52  67 S12       29.72S
$$
MNZ001>005-007-008-013>017-022>024-027-028-211100-
   Northwest Minnesota

CITY           SKY/WX    TMP DP  RH WIND       PRES   REMARKS
BEMIDJI        CLOUDY    63  56  78 S17G30    29.50S
HALLOCK        CLEAR     66  57  72 S23G31    29.32R
ROSEAU         MOCLDY    64  57  77 S15       29.40R
WARROAD        PTCLDY    63  57  82 SE15G26   29.42S
CROOKSTON      PTCLDY    66  57  72 S24G30    29.37R
FOSSTON        CLEAR     63  54  72 S21G28    29.43F
DETROIT LAKES  MOCLDY    63  55  77 S17       29.47F
MOORHEAD       CLEAR     64  57  77 S23G30    29.40S
PARK RAPIDS    CLOUDY    63  56  78 S17G29    29.52F
MAHNOMEN       FAIR      63  56  78 S16G26    29.43S
$$
MNZ006-009>011-018-025>026-211100-
   North Central Minnesota

CITY           SKY/WX    TMP DP  RH WIND       PRES   REMARKS
BAUDETTE       CLOUDY    61  55  81 SE16G24   29.47F
FLAG ISLAND    CLEAR     57  50  77 SE18      29.42S
INTL FALLS     CLOUDY    63  49  60 S8G17     29.54F
WASKISH        CLEAR     61  55  82 SE10G16   29.49S
BIG FORK       PTCLDY    63  52  67 S12G18    29.56F
LONGVILLE      CLOUDY    63  55  77 S17G23    29.56F
GRAND RAPIDS   MOCLDY    60  52  74 S18G24    29.61F
CRANE LAKE     MOCLDY    61  52  72 S8        29.62S
ORR            PTCLDY    61  48  63 S12G20    29.57F
COOK           PTCLDY    61  52  72 S10G21    29.61F
WALKER         CLOUDY    63  55  74 SE15      29.52S
$$
MNZ012-019>021-037-211100-
   Northeast Minnesota

CITY           SKY/WX    TMP DP  RH WIND       PRES   REMARKS
DULUTH         CLOUDY    60  52  74 S16G24    29.69S
ELY            CLOUDY    61  46  59 S9G17     29.66F
HIBBING        CLOUDY    60  51  72 S9G20     29.63F
EVELETH        MOCLDY    60  47  62 S10       29.66F
DULUTH HARBOR  LGT RAIN  63  54  72 S10       29.69S
TWO HARBORS    CLOUDY    61  54  77 S3        29.69F
SILVER BAY     CLOUDY    57  48  72 S5        29.71S
G MARAIS ARPRT CLOUDY    55  43  62 S6        29.77S
$$
MNZ029>031-032-039>041-046>048-054>057-064-211100-
   West Central Minnesota

CITY           SKY/WX    TMP DP  RH WIND       PRES   REMARKS
FERGUS FALLS   PTCLDY    63  55  77 S18G25    29.46S
WHEATON        PTCLDY    63  55  77 SE14      29.45S
ALEXANDRIA     CLOUDY    62  56  80 S17       29.54F
ELBOW LAKE     FAIR      61  56  84 SE20G25   29.48S
WADENA         MOCLDY    63  55  77 S18G24    29.52R
GLENWOOD       CLOUDY    61  55  82 SE17G25   29.55S
APPLETON       CLOUDY    64  55  72 S12G17    29.48F
BENSON         MOCLDY    63  55  77 S15G22    29.53S
ORTONVILLE     CLOUDY    64  55  72 N12G17    29.46S
MADISON        CLOUDY    66  57  72 S12       29.48F
WILLMAR        FAIR      63  57  82 SE15G21   29.57S
$$
MNZ033>034-036-042>043-049>051-058-059-211100-
   Central Minnesota

CITY           SKY/WX    TMP DP  RH WIND       PRES   REMARKS
ST CLOUD       CLOUDY    63  55  75 S17       29.61F
SAUK CENTRE    FAIR      60  55  84 SE16G23   29.56F
PAYNESVILLE    PTCLDY    63  56  80 SE16      29.59S
AITKIN         CLOUDY    57  52  82 SE18G24   29.59F
PINE RIVER     CLOUDY    61  54  77 S15       29.60F
BRAINERD       PTCLDY    62  55  77 S14G24    29.59F
STAPLES        MOCLDY    63  54  72 S15G21    29.54F
LONG PRAIRIE   FAIR      61  54  77 SE17G24   29.56F
LITTLE FALLS   CLOUDY    61  50  67 SE12      29.59F
LITCHFIELD     CLOUDY    64  57  77 SE12G18   29.60F
BUFFALO        CLOUDY    63  53  70 SE9G17    29.65F
MAPLE LAKE     CLOUDY    63  56  77 SE9       29.64F
HUTCHINSON     MOCLDY    62  56  79 SE10G16   29.63F
$$
MNZ037-044-045-052-053-211100-
   East Central Minnesota

CITY           SKY/WX    TMP DP  RH WIND       PRES   REMARKS
PRINCETON      CLOUDY    63  54  72 SE13      29.64F
MORA           CLOUDY    59  50  72 SE9       29.67F
CAMBRIDGE      CLOUDY    64  52  63 SE12      29.67S
RUSH CITY      CLOUDY    62  52  68 S10       29.69S
MOOSE LAKE     CLOUDY    61  52  72 S7        29.65F
HINCKLEY       PTSUNNY   63  54  72 S10G16    29.68F
CLOQUET        MOCLDY    63  50  63 S9        29.68S
MCGREGOR       MOCLDY    61  54  77 S12       29.63F
$$
MNZ071>073-080-081-089-090-097-098-211100-
   Southwest Minnesota

CITY           SKY/WX    TMP DP  RH WIND       PRES   REMARKS
MONTEVIDEO     CLOUDY    63  57  82 S13G18    29.52R
GRANITE FALLS  CLOUDY    65  58  79 SE17G23   29.55S
CANBY          CLOUDY    66  58  75 S16G23    29.49F
MARSHALL       CLOUDY    64  58  80 S18       29.53R
REDWOOD FALLS  CLOUDY    62  55  77 S17       29.57F
OLIVIA         CLOUDY    61  54  77 S15G23    29.57S
PIPESTONE      CLOUDY    63  55  77 S21G26    29.53S
WORTHINGTON    CLOUDY    63  57  81 S18G26    29.58F
JACKSON        CLOUDY    61  54  77 S17G24    29.63S
TRACY          CLOUDY    64  58  81 S17G31    29.53S
SLAYTON        CLOUDY    63  57  82 S18G25    29.56F
$$
MNZ065>067-074>077-082>085-091>093-211100-
   South Central Minnesota

CITY           SKY/WX    TMP DP  RH WIND       PRES   REMARKS
MANKATO        PTCLDY    63  54  72 S15G25    29.66S
NEW ULM          N/A     63  54  72 SE13G23   29.61F
ST JAMES       PTCLDY    61  54  77 SE20G30   29.62F
FAIRMONT       MOCLDY    62  55  77 S20G28    29.65S
GLENCOE        CLOUDY    64  55  71 S14G22    29.63S
FARIBAULT      MOCLDY    61  52  72 SE17G25   29.70S
OWATONNA       PTCLDY    61  52  72 SE21G26   29.71S
WASECA         CLOUDY    63  52  67 SE13G23   29.70F
$$
MNZ078>079-086>088-094>096-211100-
   Southeast Minnesota

CITY           SKY/WX    TMP DP  RH WIND       PRES   REMARKS
ROCHESTER      MOCLDY    60  51  72 S18G26    29.78S
RED WING       PTCLDY    63  48  59 S10G20    29.73S
STANTON        MOCLDY    62  52  69 S17G26    29.69S
DODGE CENTER   CLEAR     61  52  72 S24       29.74S
WINONA         CLEAR     63  50  63 S7G20     29.80S
AUSTIN         CLOUDY    61  52  72 S17G23    29.75S
PRESTON        CLEAR     59  49  70 S15G22    29.80S
$$
ABBREVIATIONS USED IN REMARKS
   TC - TEMPERATURES IN CELSIUS
  WCI - WIND CHILL INDEX
   HX - HEAT INDEX
  VSB - VISIBILITY
$$




USA.gov is the U.S. government's official web portal to all federal, state and local government web resources and services.